Time,TemperatureF,DewpointF,PressureIn,WindDirection,WindDirectionDegrees,WindSpeedMPH,WindSpeedGustMPH,Humidity,HourlyPrecipIn,Conditions,Clouds,dailyrainin,SolarRadiationWatts/m^2,SoftwareType,DateUTC
2013-02-06 00:00:00,61.3,56.4,30.08,SE,131,0.0,0.0,84,0.00,,,0.00,0,Wunderground v.1.15,2013-02-06 05:00:00,
2013-02-06 00:02:00,61.0,56.1,30.08,SE,131,0.0,0.0,84,0.00,,,0.00,0,Wunderground v.1.15,2013-02-06 05:02:00,
2013-02-06 00:06:00,60.8,56.3,30.08,SE,131,0.0,0.0,85,0.00,,,0.00,0,Wunderground v.1.15,2013-02-06 05:06:00,
2013-02-06 00:12:00,60.5,55.6,30.08,SE,131,0.0,0.0,84,0.00,,,0.00,0,Wunderground v.1.15,2013-02-06 05:12:00,
2013-02-06 00:14:00,60.3,55.4,30.08,SE,131,0.0,0.0,84,0.00,,,0.00,0,Wunderground v.1.15,2013-02-06 05:14:00,
2013-02-06 00:20:00,60.2,56.0,30.08,SE,131,0.0,0.0,86,0.00,,,0.00,0,Wunderground v.1.15,2013-02-06 05:20:00,
2013-02-06 00:26:00,59.9,55.4,30.08,SE,131,0.0,0.0,85,0.00,,,0.00,0,Wunderground v.1.15,2013-02-06 05:26:00,
2013-02-06 00:32:00,59.5,55.3,30.08,SE,131,0.0,0.0,86,0.00,,,0.00,0,Wunderground v.1.15,2013-02-06 05:32:00,
2013-02-06 00:38:00,59.3,55.1,30.07,SE,131,0.0,0.0,86,0.00,,,0.00,0,Wunderground v.1.15,2013-02-06 05:38:00,
2013-02-06 00:44:00,59.3,55.1,30.07,SE,131,0.0,0.0,86,0.00,,,0.00,0,Wunderground v.1.15,2013-02-06 05:44:00,
2013-02-06 00:50:00,59.3,55.1,30.07,SE,131,0.0,0.0,86,0.00,,,0.00,0,Wunderground v.1.15,2013-02-06 05:50:00,
2013-02-06 00:56:00,59.3,55.1,30.07,SE,131,0.0,0.0,86,0.00,,,0.00,0,Wunderground v.1.15,2013-02-06 05:56:00,
2013-02-06 01:02:00,59.2,55.0,30.07,SE,131,0.0,0.0,86,0.00,,,0.00,0,Wunderground v.1.15,2013-02-06 06:02:00,
2013-02-06 01:08:00,59.0,54.8,30.07,SE,131,0.0,0.0,86,0.00,,,0.00,0,Wunderground v.1.15,2013-02-06 06:08:00,
2013-02-06 01:14:00,58.9,55.0,30.07,SE,131,0.0,0.0,87,0.00,,,0.00,0,Wunderground v.1.15,2013-02-06 06:14:00,
2013-02-06 01:20:00,59.7,56.8,30.07,SE,131,0.0,0.0,90,0.00,,,0.00,0,Wunderground v.1.15,2013-02-06 06:20:00,
2013-02-06 01:26:00,60.0,56.4,30.07,SE,131,0.0,0.0,88,0.00,,,0.00,0,Wunderground v.1.15,2013-02-06 06:26:00,
2013-02-06 01:32:00,60.2,57.6,30.06,SE,131,0.0,0.0,91,0.00,,,0.00,0,Wunderground v.1.15,2013-02-06 06:32:00,
2013-02-06 01:38:00,59.8,55.6,30.06,SE,131,0.0,0.0,86,0.00,,,0.00,0,Wunderground v.1.15,2013-02-06 06:38:00,
2013-02-06 01:44:00,59.6,55.7,30.06,SE,131,0.0,0.0,87,0.00,,,0.00,0,Wunderground v.1.15,2013-02-06 06:44:00,
2013-02-06 01:50:00,60.1,56.8,30.06,SE,131,0.0,0.0,89,0.00,,,0.00,0,Wunderground v.1.15,2013-02-06 06:50:00,
2013-02-06 01:56:00,60.0,55.8,30.06,SE,131,0.0,0.0,86,0.00,,,0.00,0,Wunderground v.1.15,2013-02-06 06:56:00,
2013-02-06 02:02:00,59.8,55.9,30.06,SE,131,0.0,0.0,87,0.00,,,0.00,0,Wunderground v.1.15,2013-02-06 07:02:00,
2013-02-06 02:08:00,59.8,55.9,30.06,SE,131,0.0,0.0,87,0.00,,,0.00,0,Wunderground v.1.15,2013-02-06 07:08:00,
2013-02-06 02:14:00,59.6,56.0,30.06,SE,131,0.0,0.0,88,0.00,,,0.00,0,Wunderground v.1.15,2013-02-06 07:14:00,
2013-02-06 02:20:00,59.6,56.0,30.06,SE,131,0.0,0.0,88,0.00,,,0.00,0,Wunderground v.1.15,2013-02-06 07:20:00,
2013-02-06 02:26:00,59.8,56.2,30.06,SE,131,0.0,1.0,88,0.00,,,0.00,0,Wunderground v.1.15,2013-02-06 07:26:00,
2013-02-06 02:32:00,60.0,56.4,30.06,SE,131,2.0,3.0,88,0.00,,,0.00,0,Wunderground v.1.15,2013-02-06 07:32:00,
2013-02-06 02:38:00,59.9,56.3,30.05,SE,131,2.0,3.0,88,0.00,,,0.00,0,Wunderground v.1.15,2013-02-06 07:38:00,
2013-02-06 02:44:00,60.0,56.4,30.05,SE,131,0.0,1.0,88,0.00,,,0.00,0,Wunderground v.1.15,2013-02-06 07:44:00,
2013-02-06 02:50:00,59.9,56.3,30.05,SE,131,0.0,0.0,88,0.00,,,0.00,0,Wunderground v.1.15,2013-02-06 07:50:00,
2013-02-06 02:56:00,59.8,56.2,30.05,SE,131,0.0,0.0,88,0.00,,,0.00,0,Wunderground v.1.15,2013-02-06 07:56:00,
2013-02-06 03:02:00,59.7,56.1,30.05,SE,131,0.0,0.0,88,0.00,,,0.00,0,Wunderground v.1.15,2013-02-06 08:02:00,
2013-02-06 03:08:00,59.4,56.2,30.05,SE,131,0.0,0.0,89,0.00,,,0.00,0,Wunderground v.1.15,2013-02-06 08:08:00,
2013-02-06 03:14:00,59.1,55.9,30.06,SE,131,0.0,0.0,89,0.00,,,0.00,0,Wunderground v.1.15,2013-02-06 08:14:00,
2013-02-06 03:20:00,58.8,55.6,30.06,SE,131,0.0,0.0,89,0.00,,,0.00,0,Wunderground v.1.15,2013-02-06 08:20:00,
2013-02-06 03:26:00,58.5,55.6,30.05,SE,131,0.0,0.0,90,0.00,,,0.00,0,Wunderground v.1.15,2013-02-06 08:26:00,
2013-02-06 03:32:00,58.3,55.4,30.06,SE,131,0.0,0.0,90,0.00,,,0.00,0,Wunderground v.1.15,2013-02-06 08:32:00,
2013-02-06 03:38:00,58.1,55.5,30.05,SE,131,0.0,0.0,91,0.00,,,0.00,0,Wunderground v.1.15,2013-02-06 08:38:00,
2013-02-06 03:44:00,58.0,55.4,30.06,SE,131,0.0,0.0,91,0.00,,,0.00,0,Wunderground v.1.15,2013-02-06 08:44:00,
2013-02-06 03:50:00,57.8,55.2,30.06,SE,131,0.0,0.0,91,0.00,,,0.00,0,Wunderground v.1.15,2013-02-06 08:50:00,
2013-02-06 03:56:00,57.7,55.4,30.06,SE,131,0.0,0.0,92,0.00,,,0.00,0,Wunderground v.1.15,2013-02-06 08:56:00,
2013-02-06 04:02:00,57.7,55.4,30.06,SE,131,0.0,0.0,92,0.00,,,0.00,0,Wunderground v.1.15,2013-02-06 09:02:00,
2013-02-06 04:08:00,57.8,55.2,30.05,SE,131,0.0,0.0,91,0.00,,,0.00,0,Wunderground v.1.15,2013-02-06 09:08:00,
2013-02-06 04:14:00,57.6,55.3,30.06,SE,131,0.0,0.0,92,0.00,,,0.00,0,Wunderground v.1.15,2013-02-06 09:14:00,
2013-02-06 04:20:00,57.5,55.2,30.06,SE,131,0.0,0.0,92,0.00,,,0.00,0,Wunderground v.1.15,2013-02-06 09:20:00,
2013-02-06 04:26:00,57.5,55.2,30.06,SE,131,0.0,0.0,92,0.00,,,0.00,0,Wunderground v.1.15,2013-02-06 09:26:00,
2013-02-06 04:32:00,57.4,55.1,30.06,SE,131,0.0,0.0,92,0.00,,,0.00,0,Wunderground v.1.15,2013-02-06 09:32:00,
2013-02-06 04:38:00,57.5,55.2,30.07,SE,131,0.0,0.0,92,0.00,,,0.00,0,Wunderground v.1.15,2013-02-06 09:38:00,
2013-02-06 04:44:00,57.4,55.1,30.07,SE,131,0.0,0.0,92,0.00,,,0.00,0,Wunderground v.1.15,2013-02-06 09:44:00,
2013-02-06 04:50:00,57.5,55.2,30.07,SE,131,0.0,0.0,92,0.00,,,0.00,0,Wunderground v.1.15,2013-02-06 09:50:00,
2013-02-06 04:56:00,57.3,55.0,30.07,SE,131,0.0,0.0,92,0.00,,,0.00,0,Wunderground v.1.15,2013-02-06 09:56:00,
2013-02-06 05:02:00,57.2,54.9,30.07,SE,131,0.0,0.0,92,0.00,,,0.00,0,Wunderground v.1.15,2013-02-06 10:02:00,
2013-02-06 05:08:00,57.1,54.8,30.07,SE,131,0.0,0.0,92,0.00,,,0.00,0,Wunderground v.1.15,2013-02-06 10:08:00,
2013-02-06 05:14:00,56.9,54.9,30.07,SE,131,0.0,0.0,93,0.00,,,0.00,0,Wunderground v.1.15,2013-02-06 10:14:00,
2013-02-06 05:20:00,56.9,54.6,30.07,SE,131,0.0,0.0,92,0.00,,,0.00,0,Wunderground v.1.15,2013-02-06 10:20:00,
2013-02-06 05:26:00,56.9,54.6,30.07,SE,131,0.0,0.0,92,0.00,,,0.00,0,Wunderground v.1.15,2013-02-06 10:26:00,
2013-02-06 05:32:00,56.8,54.5,30.07,SE,131,0.0,0.0,92,0.00,,,0.00,0,Wunderground v.1.15,2013-02-06 10:32:00,
2013-02-06 05:38:00,57.0,55.0,30.07,SE,131,0.0,0.0,93,0.00,,,0.00,0,Wunderground v.1.15,2013-02-06 10:38:00,
2013-02-06 05:44:00,57.2,55.2,30.07,SE,131,0.0,0.0,93,0.00,,,0.00,0,Wunderground v.1.15,2013-02-06 10:44:00,
2013-02-06 05:50:00,56.9,54.6,30.07,SE,131,0.0,0.0,92,0.00,,,0.00,0,Wunderground v.1.15,2013-02-06 10:50:00,
2013-02-06 05:56:00,56.7,54.4,30.07,SE,131,0.0,0.0,92,0.00,,,0.00,0,Wunderground v.1.15,2013-02-06 10:56:00,
2013-02-06 06:02:00,56.8,54.8,30.08,SE,131,0.0,0.0,93,0.00,,,0.00,0,Wunderground v.1.15,2013-02-06 11:02:00,
2013-02-06 06:08:00,56.9,54.9,30.07,SE,131,0.0,0.0,93,0.00,,,0.00,0,Wunderground v.1.15,2013-02-06 11:08:00,
2013-02-06 06:14:00,56.9,54.9,30.08,SE,131,0.0,0.0,93,0.00,,,0.00,0,Wunderground v.1.15,2013-02-06 11:14:00,
2013-02-06 06:20:00,57.2,55.2,30.08,SE,131,0.0,0.0,93,0.00,,,0.00,0,Wunderground v.1.15,2013-02-06 11:20:00,
2013-02-06 06:26:00,57.3,55.0,30.08,SE,131,0.0,0.0,92,0.00,,,0.00,0,Wunderground v.1.15,2013-02-06 11:26:00,
2013-02-06 06:32:00,57.5,55.2,30.08,SE,131,0.0,0.0,92,0.00,,,0.00,0,Wunderground v.1.15,2013-02-06 11:32:00,
2013-02-06 06:38:00,57.7,55.4,30.08,SE,131,0.0,0.0,92,0.00,,,0.00,0,Wunderground v.1.15,2013-02-06 11:38:00,
2013-02-06 06:44:00,57.8,55.2,30.08,SE,131,0.0,0.0,91,0.00,,,0.00,0,Wunderground v.1.15,2013-02-06 11:44:00,
2013-02-06 06:50:00,58.0,55.4,30.09,SE,131,0.0,0.0,91,0.00,,,0.00,0,Wunderground v.1.15,2013-02-06 11:50:00,
2013-02-06 06:56:00,58.2,55.6,30.09,SE,131,0.0,0.0,91,0.00,,,0.00,0,Wunderground v.1.15,2013-02-06 11:56:00,
2013-02-06 07:02:00,58.3,55.7,30.09,SE,131,0.0,0.0,91,0.00,,,0.00,0,Wunderground v.1.15,2013-02-06 12:02:00,
2013-02-06 07:08:00,58.5,55.9,30.09,SE,131,0.0,0.0,91,0.00,,,0.00,7,Wunderground v.1.15,2013-02-06 12:08:00,
2013-02-06 07:14:00,58.5,55.6,30.09,SE,131,0.0,0.0,90,0.00,,,0.00,12,Wunderground v.1.15,2013-02-06 12:14:00,
2013-02-06 07:20:00,58.6,55.7,30.10,SE,131,0.0,0.0,90,0.00,,,0.00,25,Wunderground v.1.15,2013-02-06 12:20:00,
2013-02-06 07:26:00,58.9,56.0,30.10,SE,131,0.0,0.0,90,0.00,,,0.00,33,Wunderground v.1.15,2013-02-06 12:26:00,
2013-02-06 07:32:00,59.5,56.3,30.10,SE,131,0.0,0.0,89,0.00,,,0.00,46,Wunderground v.1.15,2013-02-06 12:32:00,
2013-02-06 07:38:00,60.0,56.7,30.10,SE,131,0.0,0.0,89,0.00,,,0.00,54,Wunderground v.1.15,2013-02-06 12:38:00,
2013-02-06 07:44:00,60.4,57.1,30.11,SE,131,0.0,0.0,89,0.00,,,0.00,74,Wunderground v.1.15,2013-02-06 12:44:00,
2013-02-06 07:50:00,61.1,57.8,30.10,NNE,13,0.0,0.0,89,0.00,,,0.00,63,Wunderground v.1.15,2013-02-06 12:50:00,
2013-02-06 07:56:00,61.3,58.0,30.10,NNE,12,0.0,0.0,89,0.00,,,0.00,69,Wunderground v.1.15,2013-02-06 12:56:00,
2013-02-06 08:02:00,61.6,58.3,30.10,NNE,12,0.0,0.0,89,0.00,,,0.00,90,Wunderground v.1.15,2013-02-06 13:02:00,
2013-02-06 08:08:00,62.4,59.4,30.11,NNE,12,0.0,0.0,90,0.00,,,0.00,98,Wunderground v.1.15,2013-02-06 13:08:00,
2013-02-06 08:14:00,63.0,59.4,30.11,North,11,0.0,0.0,88,0.00,,,0.00,109,Wunderground v.1.15,2013-02-06 13:14:00,
2013-02-06 08:20:00,63.9,60.3,30.11,North,11,0.0,0.0,88,0.00,,,0.00,132,Wunderground v.1.15,2013-02-06 13:20:00,
2013-02-06 08:26:00,64.4,60.8,30.11,North,11,0.0,0.0,88,0.00,,,0.00,123,Wunderground v.1.15,2013-02-06 13:26:00,
2013-02-06 08:32:00,64.7,60.7,30.12,North,11,0.0,0.0,87,0.00,,,0.00,151,Wunderground v.1.15,2013-02-06 13:32:00,
2013-02-06 08:38:00,65.4,61.4,30.12,North,11,0.0,0.0,87,0.00,,,0.00,160,Wunderground v.1.15,2013-02-06 13:38:00,
2013-02-06 08:44:00,66.1,61.8,30.12,North,11,0.0,0.0,86,0.00,,,0.00,181,Wunderground v.1.15,2013-02-06 13:44:00,
2013-02-06 08:50:00,66.8,62.5,30.12,North,11,0.0,0.0,86,0.00,,,0.00,230,Wunderground v.1.15,2013-02-06 13:50:00,
2013-02-06 08:56:00,67.5,62.5,30.12,North,11,0.0,0.0,84,0.00,,,0.00,174,Wunderground v.1.15,2013-02-06 13:56:00,
2013-02-06 09:02:00,67.8,62.8,30.12,ESE,105,1.0,4.0,84,0.00,,,0.00,220,Wunderground v.1.15,2013-02-06 14:02:00,
2013-02-06 09:08:00,68.4,63.4,30.12,SSE,159,2.0,4.0,84,0.00,,,0.00,476,Wunderground v.1.15,2013-02-06 14:08:00,
2013-02-06 09:14:00,69.1,63.7,30.12,SSE,160,3.0,3.0,83,0.00,,,0.00,399,Wunderground v.1.15,2013-02-06 14:14:00,
2013-02-06 09:20:00,70.4,63.9,30.12,South,173,1.0,3.0,80,0.00,,,0.00,306,Wunderground v.1.15,2013-02-06 14:20:00,
2013-02-06 09:26:00,69.9,63.8,30.13,South,173,0.0,3.0,81,0.00,,,0.00,287,Wunderground v.1.15,2013-02-06 14:26:00,
2013-02-06 09:32:00,69.2,63.1,30.13,SSE,166,0.0,0.0,81,0.00,,,0.00,244,Wunderground v.1.15,2013-02-06 14:32:00,
2013-02-06 09:38:00,68.5,63.5,30.13,SSE,162,0.0,0.0,84,0.00,,,0.00,227,Wunderground v.1.15,2013-02-06 14:38:00,
2013-02-06 09:44:00,67.9,63.2,30.13,SSE,162,0.0,0.0,85,0.00,,,0.00,171,Wunderground v.1.15,2013-02-06 14:44:00,
2013-02-06 09:50:00,68.3,63.6,30.14,SSE,162,0.0,0.0,85,0.00,,,0.00,181,Wunderground v.1.15,2013-02-06 14:50:00,
2013-02-06 09:56:00,68.6,63.6,30.14,SSE,162,0.0,0.0,84,0.00,,,0.00,234,Wunderground v.1.15,2013-02-06 14:56:00,
2013-02-06 10:02:00,68.7,63.7,30.14,SSE,162,0.0,0.0,84,0.00,,,0.00,223,Wunderground v.1.15,2013-02-06 15:02:00,
2013-02-06 10:08:00,68.5,63.1,30.14,SSE,162,0.0,0.0,83,0.00,,,0.00,265,Wunderground v.1.15,2013-02-06 15:08:00,
2013-02-06 10:14:00,69.0,63.6,30.14,SSE,162,0.0,0.0,83,0.00,,,0.00,301,Wunderground v.1.15,2013-02-06 15:14:00,
2013-02-06 10:20:00,70.3,64.2,30.14,SSE,162,0.0,0.0,81,0.00,,,0.00,485,Wunderground v.1.15,2013-02-06 15:20:00,
2013-02-06 10:26:00,70.8,64.7,30.14,SSE,161,0.0,2.0,81,0.00,,,0.00,316,Wunderground v.1.15,2013-02-06 15:26:00,
2013-02-06 10:32:00,70.4,64.6,30.14,SSE,160,0.0,0.0,82,0.00,,,0.00,325,Wunderground v.1.15,2013-02-06 15:32:00,
2013-02-06 10:38:00,70.5,64.7,30.14,SE,146,0.0,2.0,82,0.00,,,0.00,554,Wunderground v.1.15,2013-02-06 15:38:00,
2013-02-06 10:44:00,71.0,64.2,30.14,ESE,117,1.0,5.0,79,0.00,,,0.00,424,Wunderground v.1.15,2013-02-06 15:44:00,
2013-02-06 10:50:00,71.4,64.5,30.14,ESE,109,3.0,3.0,79,0.00,,,0.00,596,Wunderground v.1.15,2013-02-06 15:50:00,
2013-02-06 10:56:00,72.1,64.5,30.14,ESE,108,2.0,4.0,77,0.00,,,0.00,279,Wunderground v.1.15,2013-02-06 15:56:00,
2013-02-06 11:02:00,71.5,63.9,30.14,ESE,112,3.0,4.0,77,0.00,,,0.00,480,Wunderground v.1.15,2013-02-06 16:02:00,
2013-02-06 11:08:00,72.4,64.4,30.14,ESE,111,4.0,5.0,76,0.00,,,0.00,446,Wunderground v.1.15,2013-02-06 16:08:00,
2013-02-06 11:14:00,72.5,64.1,30.13,ESE,113,4.0,6.0,75,0.00,,,0.00,555,Wunderground v.1.15,2013-02-06 16:14:00,
2013-02-06 11:20:00,72.6,64.2,30.13,ESE,111,5.0,5.0,75,0.00,,,0.00,619,Wunderground v.1.15,2013-02-06 16:20:00,
2013-02-06 11:26:00,72.6,64.2,30.13,ESE,115,5.0,6.0,75,0.00,,,0.00,385,Wunderground v.1.15,2013-02-06 16:26:00,
2013-02-06 11:32:00,72.9,63.7,30.13,ESE,113,4.0,5.0,73,0.00,,,0.00,464,Wunderground v.1.15,2013-02-06 16:32:00,
2013-02-06 11:38:00,73.3,63.7,30.12,East,101,4.0,6.0,72,0.00,,,0.00,397,Wunderground v.1.15,2013-02-06 16:38:00,
2013-02-06 11:44:00,73.1,63.9,30.12,ESE,108,4.0,5.0,73,0.00,,,0.00,330,Wunderground v.1.15,2013-02-06 16:44:00,
2013-02-06 11:50:00,73.5,63.5,30.12,ESE,107,3.0,5.0,71,0.00,,,0.00,461,Wunderground v.1.15,2013-02-06 16:50:00,
2013-02-06 11:56:00,73.3,64.9,30.12,SE,126,4.0,7.0,75,0.00,,,0.00,480,Wunderground v.1.15,2013-02-06 16:56:00,
2013-02-06 12:02:00,74.2,65.4,30.12,ENE,76,3.0,3.0,74,0.00,,,0.00,448,Wunderground v.1.15,2013-02-06 17:02:00,
2013-02-06 12:08:00,73.8,65.0,30.12,East,100,1.0,3.0,74,0.00,,,0.00,345,Wunderground v.1.15,2013-02-06 17:08:00,
2013-02-06 12:14:00,73.7,64.9,30.12,East,95,1.0,3.0,74,0.00,,,0.00,241,Wunderground v.1.15,2013-02-06 17:14:00,
2013-02-06 12:20:00,73.4,64.6,30.12,East,92,1.0,1.0,74,0.00,,,0.00,264,Wunderground v.1.15,2013-02-06 17:20:00,
2013-02-06 12:26:00,73.6,64.4,30.12,East,92,2.0,4.0,73,0.00,,,0.00,367,Wunderground v.1.15,2013-02-06 17:26:00,
2013-02-06 12:32:00,73.4,64.6,30.11,East,98,2.0,2.0,74,0.00,,,0.00,181,Wunderground v.1.15,2013-02-06 17:32:00,
2013-02-06 12:38:00,72.9,64.5,30.11,East,98,3.0,4.0,75,0.00,,,0.00,179,Wunderground v.1.15,2013-02-06 17:38:00,
2013-02-06 12:44:00,72.6,64.6,30.11,East,101,2.0,4.0,76,0.00,,,0.00,225,Wunderground v.1.15,2013-02-06 17:44:00,
2013-02-06 12:50:00,73.4,65.0,30.11,SE,124,2.0,3.0,75,0.00,,,0.00,483,Wunderground v.1.15,2013-02-06 17:50:00,
2013-02-06 12:56:00,73.8,64.6,30.11,East,88,3.0,3.0,73,0.00,,,0.00,580,Wunderground v.1.15,2013-02-06 17:56:00,
2013-02-06 13:02:00,74.1,64.9,30.10,ESE,107,3.0,4.0,73,0.00,,,0.00,501,Wunderground v.1.15,2013-02-06 18:02:00,
2013-02-06 13:08:00,73.6,64.4,30.10,SE,132,4.0,6.0,73,0.00,,,0.00,279,Wunderground v.1.15,2013-02-06 18:08:00,
2013-02-06 13:14:00,72.9,64.5,30.10,ESE,117,5.0,6.0,75,0.00,,,0.00,253,Wunderground v.1.15,2013-02-06 18:14:00,
2013-02-06 13:20:00,72.5,64.9,30.10,ESE,118,4.0,4.0,77,0.00,,,0.00,206,Wunderground v.1.15,2013-02-06 18:20:00,
2013-02-06 13:26:00,72.4,64.8,30.10,ESE,115,2.0,4.0,77,0.00,,,0.00,179,Wunderground v.1.15,2013-02-06 18:26:00,
2013-02-06 13:32:00,72.1,64.9,30.10,East,101,3.0,6.0,78,0.00,,,0.00,167,Wunderground v.1.15,2013-02-06 18:32:00,
2013-02-06 13:38:00,72.2,65.0,30.09,ESE,103,3.0,6.0,78,0.00,,,0.00,165,Wunderground v.1.15,2013-02-06 18:38:00,
2013-02-06 13:44:00,72.1,65.2,30.09,ESE,112,4.0,5.0,79,0.00,,,0.00,174,Wunderground v.1.15,2013-02-06 18:44:00,
2013-02-06 13:50:00,72.0,65.5,30.09,ESE,114,4.0,4.0,80,0.00,,,0.00,186,Wunderground v.1.15,2013-02-06 18:50:00,
2013-02-06 13:56:00,72.0,65.8,30.09,ESE,117,4.0,4.0,81,0.00,,,0.00,241,Wunderground v.1.15,2013-02-06 18:56:00,
2013-02-06 14:02:00,72.3,66.1,30.08,ESE,105,4.0,6.0,81,0.00,,,0.00,297,Wunderground v.1.15,2013-02-06 19:02:00,
2013-02-06 14:08:00,73.1,66.6,30.08,ESE,110,5.0,6.0,80,0.00,,,0.00,775,Wunderground v.1.15,2013-02-06 19:08:00,
2013-02-06 14:14:00,73.5,66.2,30.08,ESE,117,5.0,5.0,78,0.00,,,0.00,394,Wunderground v.1.15,2013-02-06 19:14:00,
2013-02-06 14:20:00,74.2,66.9,30.08,ESE,112,5.0,6.0,78,0.00,,,0.00,914,Wunderground v.1.15,2013-02-06 19:20:00,
2013-02-06 14:26:00,74.3,66.6,30.08,SE,126,5.0,10.0,77,0.00,,,0.00,281,Wunderground v.1.15,2013-02-06 19:26:00,
2013-02-06 14:32:00,73.2,65.9,30.08,ESE,107,6.0,6.0,78,0.00,,,0.00,250,Wunderground v.1.15,2013-02-06 19:32:00,
2013-02-06 14:38:00,72.9,66.0,30.08,SE,130,5.0,7.0,79,0.00,,,0.00,253,Wunderground v.1.15,2013-02-06 19:38:00,
2013-02-06 14:44:00,72.8,65.9,30.08,ESE,107,5.0,6.0,79,0.00,,,0.00,237,Wunderground v.1.15,2013-02-06 19:44:00,
2013-02-06 14:50:00,72.8,65.5,30.08,SSE,149,4.0,6.0,78,0.00,,,0.00,274,Wunderground v.1.15,2013-02-06 19:50:00,
2013-02-06 14:56:00,73.4,66.5,30.08,ESE,103,5.0,6.0,79,0.00,,,0.00,731,Wunderground v.1.15,2013-02-06 19:56:00,
2013-02-06 15:02:00,73.6,66.3,30.08,East,99,5.0,6.0,78,0.00,,,0.00,380,Wunderground v.1.15,2013-02-06 20:02:00,
2013-02-06 15:08:00,73.4,66.1,30.08,East,101,6.0,6.0,78,0.00,,,0.00,341,Wunderground v.1.15,2013-02-06 20:08:00,
2013-02-06 15:14:00,73.4,66.1,30.08,ESE,111,5.0,6.0,78,0.00,,,0.00,367,Wunderground v.1.15,2013-02-06 20:14:00,
2013-02-06 15:20:00,73.0,66.1,30.08,ESE,111,6.0,6.0,79,0.00,,,0.00,279,Wunderground v.1.15,2013-02-06 20:20:00,
2013-02-06 15:26:00,72.9,66.4,30.08,East,96,6.0,8.0,80,0.00,,,0.00,343,Wunderground v.1.15,2013-02-06 20:26:00,
2013-02-06 15:32:00,73.0,66.1,30.08,ESE,117,5.0,9.0,79,0.00,,,0.00,429,Wunderground v.1.15,2013-02-06 20:32:00,
2013-02-06 15:38:00,73.4,66.1,30.08,ESE,118,5.0,9.0,78,0.00,,,0.00,608,Wunderground v.1.15,2013-02-06 20:38:00,
2013-02-06 15:44:00,73.7,66.0,30.08,ESE,106,5.0,6.0,77,0.00,,,0.00,489,Wunderground v.1.15,2013-02-06 20:44:00,
2013-02-06 15:50:00,73.4,65.7,30.08,ESE,109,5.0,6.0,77,0.00,,,0.00,211,Wunderground v.1.15,2013-02-06 20:50:00,
2013-02-06 15:56:00,72.9,65.6,30.08,ESE,115,5.0,6.0,78,0.00,,,0.00,211,Wunderground v.1.15,2013-02-06 20:56:00,
2013-02-06 16:02:00,72.7,65.8,30.08,ESE,112,5.0,5.0,79,0.00,,,0.00,188,Wunderground v.1.15,2013-02-06 21:02:00,
2013-02-06 16:08:00,72.6,65.3,30.08,SE,127,4.0,7.0,78,0.00,,,0.00,200,Wunderground v.1.15,2013-02-06 21:08:00,
2013-02-06 16:14:00,72.4,65.5,30.08,SE,145,5.0,7.0,79,0.00,,,0.00,192,Wunderground v.1.15,2013-02-06 21:14:00,
2013-02-06 16:20:00,72.3,65.4,30.08,ESE,107,5.0,5.0,79,0.00,,,0.00,162,Wunderground v.1.15,2013-02-06 21:20:00,
2013-02-06 16:26:00,72.3,65.4,30.08,ESE,116,4.0,6.0,79,0.00,,,0.00,134,Wunderground v.1.15,2013-02-06 21:26:00,
2013-02-06 16:32:00,72.4,65.5,30.08,ESE,113,4.0,4.0,79,0.00,,,0.00,141,Wunderground v.1.15,2013-02-06 21:32:00,
2013-02-06 16:38:00,72.4,65.5,30.08,East,101,3.0,4.0,79,0.00,,,0.00,128,Wunderground v.1.15,2013-02-06 21:38:00,
2013-02-06 16:44:00,72.4,65.5,30.08,ESE,107,4.0,6.0,79,0.00,,,0.00,100,Wunderground v.1.15,2013-02-06 21:44:00,
2013-02-06 16:50:00,72.4,65.2,30.08,SE,138,4.0,4.0,78,0.00,,,0.00,86,Wunderground v.1.15,2013-02-06 21:50:00,
2013-02-06 16:56:00,72.4,65.2,30.08,ESE,111,4.0,4.0,78,0.00,,,0.00,81,Wunderground v.1.15,2013-02-06 21:56:00,
2013-02-06 17:02:00,72.3,65.1,30.08,SE,132,4.0,4.0,78,0.00,,,0.00,58,Wunderground v.1.15,2013-02-06 22:02:00,
2013-02-06 17:08:00,72.1,65.2,30.08,ESE,122,3.0,5.0,79,0.00,,,0.00,51,Wunderground v.1.15,2013-02-06 22:08:00,
2013-02-06 17:14:00,71.9,65.8,30.09,SE,126,5.0,7.0,81,0.00,,,0.00,33,Wunderground v.1.15,2013-02-06 22:14:00,
2013-02-06 17:20:00,71.6,65.5,30.09,SE,126,5.0,6.0,81,0.00,,,0.00,26,Wunderground v.1.15,2013-02-06 22:20:00,
2013-02-06 17:26:00,71.4,65.6,30.09,ESE,121,4.0,6.0,82,0.00,,,0.00,28,Wunderground v.1.15,2013-02-06 22:26:00,
2013-02-06 17:32:00,71.3,65.2,30.09,ESE,122,4.0,6.0,81,0.00,,,0.00,21,Wunderground v.1.15,2013-02-06 22:32:00,
2013-02-06 17:38:00,71.3,65.2,30.09,SE,132,5.0,6.0,81,0.00,,,0.00,12,Wunderground v.1.15,2013-02-06 22:38:00,
2013-02-06 17:44:00,71.1,65.0,30.09,SE,129,4.0,6.0,81,0.00,,,0.00,9,Wunderground v.1.15,2013-02-06 22:44:00,
2013-02-06 17:50:00,70.9,65.1,30.09,ESE,123,4.0,4.0,82,0.00,,,0.00,7,Wunderground v.1.15,2013-02-06 22:50:00,
2013-02-06 17:56:00,70.8,65.4,30.09,SE,130,4.0,4.0,83,0.00,,,0.00,0,Wunderground v.1.15,2013-02-06 22:56:00,
2013-02-06 18:02:00,70.7,64.9,30.09,SE,127,4.0,4.0,82,0.00,,,0.00,0,Wunderground v.1.15,2013-02-06 23:02:00,
2013-02-06 18:08:00,70.6,64.8,30.09,ESE,105,4.0,9.0,82,0.00,,,0.00,0,Wunderground v.1.15,2013-02-06 23:08:00,
2013-02-06 18:14:00,70.6,64.5,30.09,SE,132,5.0,6.0,81,0.00,,,0.00,0,Wunderground v.1.15,2013-02-06 23:14:00,
2013-02-06 18:20:00,70.6,64.5,30.09,SE,142,5.0,5.0,81,0.00,,,0.00,0,Wunderground v.1.15,2013-02-06 23:20:00,
2013-02-06 18:26:00,70.5,64.7,30.09,SE,146,5.0,5.0,82,0.00,,,0.00,0,Wunderground v.1.15,2013-02-06 23:26:00,
2013-02-06 18:32:00,70.3,64.9,30.09,SE,129,4.0,4.0,83,0.00,,,0.00,0,Wunderground v.1.15,2013-02-06 23:32:00,
2013-02-06 18:38:00,70.1,64.7,30.09,SE,128,4.0,4.0,83,0.00,,,0.00,0,Wunderground v.1.15,2013-02-06 23:38:00,
2013-02-06 18:44:00,70.1,64.7,30.09,ESE,123,4.0,4.0,83,0.00,,,0.00,0,Wunderground v.1.15,2013-02-06 23:44:00,
2013-02-06 18:50:00,70.1,64.3,30.09,SE,133,3.0,3.0,82,0.00,,,0.00,0,Wunderground v.1.15,2013-02-06 23:50:00,
2013-02-06 18:56:00,70.1,64.3,30.10,ESE,121,3.0,4.0,82,0.00,,,0.00,0,Wunderground v.1.15,2013-02-06 23:56:00,
2013-02-06 19:02:00,70.1,64.3,30.10,ESE,107,4.0,6.0,82,0.00,,,0.00,0,Wunderground v.1.15,2013-02-07 00:02:00,
2013-02-06 19:08:00,70.1,64.0,30.10,ESE,123,3.0,7.0,81,0.00,,,0.00,0,Wunderground v.1.15,2013-02-07 00:08:00,
2013-02-06 19:14:00,70.1,64.0,30.10,SE,125,3.0,6.0,81,0.00,,,0.00,0,Wunderground v.1.15,2013-02-07 00:14:00,
2013-02-06 19:20:00,70.1,63.6,30.10,SE,126,4.0,5.0,80,0.00,,,0.00,0,Wunderground v.1.15,2013-02-07 00:20:00,
2013-02-06 19:26:00,70.2,63.4,30.09,ESE,121,4.0,5.0,79,0.00,,,0.00,0,Wunderground v.1.15,2013-02-07 00:26:00,
2013-02-06 19:32:00,70.1,63.3,30.10,ESE,115,4.0,4.0,79,0.00,,,0.00,0,Wunderground v.1.15,2013-02-07 00:32:00,
2013-02-06 19:38:00,70.1,63.6,30.09,SE,125,4.0,5.0,80,0.00,,,0.00,0,Wunderground v.1.15,2013-02-07 00:38:00,
2013-02-06 19:44:00,70.1,64.0,30.10,SE,127,4.0,5.0,81,0.00,,,0.00,0,Wunderground v.1.15,2013-02-07 00:44:00,
2013-02-06 19:50:00,70.2,64.1,30.10,SSE,148,4.0,4.0,81,0.00,,,0.00,0,Wunderground v.1.15,2013-02-07 00:50:00,
2013-02-06 19:56:00,70.2,64.1,30.10,SE,144,4.0,5.0,81,0.00,,,0.00,0,Wunderground v.1.15,2013-02-07 00:56:00,
2013-02-06 20:02:00,70.2,64.1,30.10,SE,140,4.0,4.0,81,0.00,,,0.00,0,Wunderground v.1.15,2013-02-07 01:02:00,
2013-02-06 20:08:00,70.3,64.2,30.10,ESE,123,4.0,4.0,81,0.00,,,0.00,0,Wunderground v.1.15,2013-02-07 01:08:00,
2013-02-06 20:14:00,70.3,64.2,30.10,ESE,111,3.0,4.0,81,0.00,,,0.00,0,Wunderground v.1.15,2013-02-07 01:14:00,
2013-02-06 20:20:00,70.4,64.3,30.11,SE,126,3.0,5.0,81,0.00,,,0.00,0,Wunderground v.1.15,2013-02-07 01:20:00,
2013-02-06 20:26:00,70.3,64.2,30.11,ESE,111,3.0,5.0,81,0.00,,,0.00,0,Wunderground v.1.15,2013-02-07 01:26:00,
2013-02-06 20:32:00,70.3,64.2,30.11,ESE,117,3.0,3.0,81,0.00,,,0.00,0,Wunderground v.1.15,2013-02-07 01:32:00,
2013-02-06 20:38:00,70.4,64.3,30.11,ESE,111,3.0,4.0,81,0.00,,,0.00,0,Wunderground v.1.15,2013-02-07 01:38:00,
2013-02-06 20:44:00,70.4,64.3,30.11,ESE,103,3.0,4.0,81,0.00,,,0.00,0,Wunderground v.1.15,2013-02-07 01:44:00,
2013-02-06 20:50:00,70.3,64.2,30.11,ESE,105,2.0,2.0,81,0.00,,,0.00,0,Wunderground v.1.15,2013-02-07 01:50:00,
2013-02-06 20:56:00,70.4,64.3,30.11,SE,124,1.0,3.0,81,0.00,,,0.00,0,Wunderground v.1.15,2013-02-07 01:56:00,
2013-02-06 21:02:00,70.4,64.3,30.11,ESE,117,2.0,6.0,81,0.00,,,0.00,0,Wunderground v.1.15,2013-02-07 02:02:00,
2013-02-06 21:08:00,70.5,64.4,30.11,East,95,4.0,6.0,81,0.00,,,0.00,0,Wunderground v.1.15,2013-02-07 02:08:00,
2013-02-06 21:14:00,70.6,64.5,30.11,ESE,105,5.0,5.0,81,0.00,,,0.00,0,Wunderground v.1.15,2013-02-07 02:14:00,
2013-02-06 21:20:00,70.5,64.4,30.11,ESE,104,5.0,5.0,81,0.00,,,0.00,0,Wunderground v.1.15,2013-02-07 02:20:00,
2013-02-06 21:26:00,70.5,64.0,30.11,ESE,123,5.0,6.0,80,0.00,,,0.00,0,Wunderground v.1.15,2013-02-07 02:26:00,
2013-02-06 21:32:00,70.5,64.0,30.11,ESE,110,4.0,4.0,80,0.00,,,0.00,0,Wunderground v.1.15,2013-02-07 02:32:00,
2013-02-06 21:38:00,70.5,64.4,30.11,ESE,109,3.0,5.0,81,0.00,,,0.00,0,Wunderground v.1.15,2013-02-07 02:38:00,
2013-02-06 21:44:00,70.4,64.3,30.11,SE,137,3.0,9.0,81,0.00,,,0.00,0,Wunderground v.1.15,2013-02-07 02:44:00,
2013-02-06 21:50:00,70.5,64.0,30.11,ESE,118,4.0,4.0,80,0.00,,,0.00,0,Wunderground v.1.15,2013-02-07 02:50:00,
2013-02-06 21:56:00,70.6,63.8,30.11,ESE,123,3.0,6.0,79,0.00,,,0.00,0,Wunderground v.1.15,2013-02-07 02:56:00,
2013-02-06 22:02:00,70.6,63.8,30.11,SE,128,4.0,5.0,79,0.00,,,0.00,0,Wunderground v.1.15,2013-02-07 03:02:00,
2013-02-06 22:08:00,70.6,63.8,30.11,ESE,103,4.0,5.0,79,0.00,,,0.00,0,Wunderground v.1.15,2013-02-07 03:08:00,
2013-02-06 22:14:00,70.5,64.0,30.11,SE,128,4.0,6.0,80,0.00,,,0.00,0,Wunderground v.1.15,2013-02-07 03:14:00,
2013-02-06 22:20:00,70.5,64.0,30.12,ESE,112,3.0,4.0,80,0.00,,,0.00,0,Wunderground v.1.15,2013-02-07 03:20:00,
2013-02-06 22:26:00,70.5,64.0,30.12,East,98,3.0,4.0,80,0.00,,,0.00,0,Wunderground v.1.15,2013-02-07 03:26:00,
2013-02-06 22:32:00,70.5,63.7,30.12,SE,144,3.0,5.0,79,0.00,,,0.00,0,Wunderground v.1.15,2013-02-07 03:32:00,
2013-02-06 22:38:00,70.5,63.7,30.12,SE,124,3.0,5.0,79,0.00,,,0.00,0,Wunderground v.1.15,2013-02-07 03:38:00,
2013-02-06 22:44:00,70.5,63.7,30.12,ESE,117,3.0,7.0,79,0.00,,,0.00,0,Wunderground v.1.15,2013-02-07 03:44:00,
2013-02-06 22:50:00,70.6,63.8,30.12,SE,146,3.0,3.0,79,0.00,,,0.00,0,Wunderground v.1.15,2013-02-07 03:50:00,
2013-02-06 22:56:00,70.7,63.9,30.12,ESE,116,4.0,5.0,79,0.00,,,0.00,0,Wunderground v.1.15,2013-02-07 03:56:00,
2013-02-06 23:02:00,70.7,63.9,30.12,ESE,123,4.0,5.0,79,0.00,,,0.00,0,Wunderground v.1.15,2013-02-07 04:02:00,
2013-02-06 23:08:00,70.6,63.8,30.11,SE,129,4.0,5.0,79,0.00,,,0.00,0,Wunderground v.1.15,2013-02-07 04:08:00,
2013-02-06 23:14:00,70.6,63.8,30.11,SE,130,4.0,4.0,79,0.00,,,0.00,0,Wunderground v.1.15,2013-02-07 04:14:00,
2013-02-06 23:20:00,70.6,63.8,30.11,ESE,114,4.0,6.0,79,0.00,,,0.00,0,Wunderground v.1.15,2013-02-07 04:20:00,
2013-02-06 23:26:00,70.6,63.8,30.11,SE,124,4.0,6.0,79,0.00,,,0.00,0,Wunderground v.1.15,2013-02-07 04:26:00,
2013-02-06 23:32:00,70.7,63.5,30.11,ESE,117,4.0,7.0,78,0.00,,,0.00,0,Wunderground v.1.15,2013-02-07 04:32:00,
2013-02-06 23:38:00,70.6,63.4,30.11,SE,132,4.0,7.0,78,0.00,,,0.00,0,Wunderground v.1.15,2013-02-07 04:38:00,
2013-02-06 23:44:00,70.5,63.7,30.11,SE,132,4.0,8.0,79,0.00,,,0.00,0,Wunderground v.1.15,2013-02-07 04:44:00,
2013-02-06 23:50:00,70.4,63.6,30.11,ESE,111,4.0,4.0,79,0.00,,,0.00,0,Wunderground v.1.15,2013-02-07 04:50:00,
2013-02-06 23:56:00,70.4,63.9,30.11,ESE,121,4.0,5.0,80,0.00,,,0.00,0,Wunderground v.1.15,2013-02-07 04:56:00,